Location: Unspecified
(56.5516°N, 0.0000°E)
Time: 13:38:15
(UTC+00:00)

CZ-6A DEB - Visible Passes

Search period start: 04 April 2026 00:00
Search period end: 14 April 2026 00:00
Orbit: 824 x 898 km, 98.8° (Epoch: 28 March)

Date Brightness Start Highest point End Pass type
(mag) Time Alt. Az. Time Alt. Az. Time Alt. Az.
10 Apr ? 04:23:24 10° NE 04:26:55 17° E 04:30:23 10° SE visible
11 Apr ? 04:14:56 10° NE 04:17:57 15° E 04:20:57 10° ESE visible
12 Apr ? 04:06:37 10° NE 04:08:59 13° E 04:11:21 10° ESE visible
13 Apr ? 03:58:37 10° ENE 04:00:00 11° E 04:01:24 10° E visible
